Location: La Chapelle
(48.3135°N, 1.3085°W)
Time: 06:54:21
(UTC+00:00)

IRS-1A Rocket - Pass Details

Date: 03 March 2021
Orbit: 851 x 931 km, 99.2° (Epoch: 13 April)

Event Time Altitude Azimuth Distance (km) Brightness Sun altitude
Exits shadow 19:46:41 21° 152° (SSE) 1,875 5.6 -19.7°
Maximum altitude 19:50:33 72° 71° (ENE) 916 4.2 -20.3°
Drops below altitude 10° 19:56:06 10° 348° (NNW) 2,510 7.0 -21.2°
Sets 19:58:28 0° 347° (NNW) 3,444 7.8 -21.6°
